Location: Newark
(40.0251°N, 85.2247°W)
Time: 02:14:18
(UTC+00:00)

Hubble Space Telescope - Visible Passes

Search period start: 15 December 2019 00:00
Search period end: 25 December 2019 00:00
Orbit: 536 x 540 km, 28.5° (Epoch: 14 December)

Date Brightness Start Highest point End Pass type
(mag) Time Alt. Az. Time Alt. Az. Time Alt. Az.
15 Dec 3.4 11:27:43 10° SSW 11:29:42 13° SSE 11:31:41 10° SE visible
16 Dec 3.3 11:16:42 10° SSW 11:18:59 14° S 11:21:14 10° SE visible
17 Dec 3.2 11:06:09 11° SSW 11:08:15 15° S 11:10:43 10° SE visible
18 Dec 3.0 10:56:19 14° SSW 10:57:31 16° S 11:00:06 10° SE visible
19 Dec 3.0 10:46:26 16° S 10:46:48 16° S 10:49:26 10° SE visible
19 Dec 3.3 12:25:21 10° SW 12:27:16 13° SSW 12:29:10 10° SSE visible
20 Dec 3.1 10:36:30 16° S 10:36:30 16° S 10:38:43 10° SE visible
20 Dec 3.3 12:15:09 10° SW 12:16:32 11° SSW 12:17:55 10° S visible
21 Dec 3.3 10:26:32 14° SSE 10:26:32 14° SSE 10:27:56 10° SE visible
22 Dec 3.6 10:16:34 12° SSE 10:16:34 12° SSE 10:17:06 10° SSE visible
